Location: Pabrico
(37.5827°N, 122.0063°W)
Time: 07:35:34
(UTC+00:00)

Cosmos 1340 - Visible Passes

Search period start: 13 July 2024 00:00
Search period end: 23 July 2024 00:00
Orbit: 428 x 431 km, 81.2° (Epoch: 12 July)

Date Brightness Start Highest point End Pass type
(mag) Time Alt. Az. Time Alt. Az. Time Alt. Az.
13 Jul 2.8 12:08:48 10° SSW 12:11:53 41° WNW 12:15:05 10° N visible
14 Jul 2.9 11:27:50 18° S 11:30:07 56° E 11:33:24 10° NNE visible
15 Jul 4.8 10:46:47 13° SE 10:48:27 18° E 10:50:49 10° NE visible
15 Jul 4.1 12:20:07 10° WSW 12:22:24 17° WNW 12:24:43 10° NNW visible
16 Jul 2.6 11:38:56 27° SW 11:40:23 50° W 11:43:39 10° N visible
17 Jul 3.2 10:57:43 37° SE 10:58:31 45° E 11:01:43 10° NNE visible
18 Jul 4.9 10:16:26 15° E 10:16:44 15° E 10:18:46 10° NE visible
18 Jul 3.9 11:49:41 18° W 11:50:35 20° WNW 11:53:09 10° NNW visible
19 Jul 2.3 11:08:19 62° W 11:08:27 63° W 11:11:47 10° N visible
20 Jul 3.8 10:26:54 35° ENE 10:26:54 35° ENE 10:29:34 10° NNE visible
21 Jul 5.4 09:45:24 12° ENE 09:45:24 12° ENE 09:46:07 10° ENE visible
21 Jul 3.8 11:18:38 24° WNW 11:18:38 24° WNW 11:21:07 10° NNW visible
22 Jul 3.4 10:37:04 43° N 10:37:04 43° N 10:39:26 10° N visible
